EW5806 Weather Reports


time (UTC)temp
C
wind
direction
speed
KPH
gust
KPH
rain 1hr
cm
rain 24hr
cm
rain mn
cm
humidity
%
barometer
mb
20260508125552 19 293 8.0 14.5 0.00 0.64 0.28 65 1011.8
20260508123555 19 315 9.7 12.9 0.00 0.64 0.28 66 1011.8
20260508122609 19 293 4.8 9.7 0.00 0.64 0.28 66 1012.0
20260508121553 19 23 4.8 8.0 0.00 0.64 0.28 66 1012.0
20260508120609 19 0 3.2 8.0 0.00 0.64 0.28 67 1012.2
20260508115553 18 293 8.0 14.5 0.00 0.64 0.28 68 1012.2
20260508114609 18 338 8.0 11.3 0.00 0.64 0.28 68 1012.3
20260508113554 19 113 6.4 11.3 0.00 0.64 0.28 64 1012.5
20260508112610 20 68 3.2 6.4 0.00 0.64 0.28 67 1012.5
20260508111553 18 225 3.2 3.2 0.00 0.64 0.28 69 1012.5
20260508110609 18 113 3.2 9.7 0.00 0.64 0.28 70 1012.6
20260508105552 18 270 1.6 3.2 0.00 0.64 0.28 70 1012.7
20260508104610 17 135 1.6 3.2 0.00 0.64 0.28 70 1012.7
20260508103552 17 338 3.2 6.4 0.00 0.64 0.28 72 1012.8
20260508102609 17 338 3.2 6.4 0.00 0.64 0.28 79 1012.9
20260508101552 16 225 1.6 3.2 0.03 0.64 0.28 86 1012.9
20260508100610 15 135 6.4 8.0 0.05 0.64 0.28 89 1012.9
20260508094610 15 270 3.2 6.4 0.13 0.64 0.28 91 1012.9
20260508093552 14 225 1.6 3.2 0.13 0.64 0.28 91 1013.0
20260508092610 15 180 3.2 6.4 0.10 0.61 0.23 91 1013.0
20260508091552 15 203 3.2 3.2 0.05 0.56 0.20 91 1013.0
20260508090610 15 203 1.6 3.2 0.03 0.53 0.18 91 1013.0
20260508085552 14 180 3.2 6.4 0.03 0.51 0.15 91 1013.1
20260508084610 14 135 4.8 8.0 0.03 0.51 0.15 91 1013.0
20260508083553 14 158 3.2 6.4 0.05 0.51 0.15 91 1012.9
20260508082610 14 135 3.2 6.4 0.05 0.51 0.15 91 1012.9
20260508081552 14 203 3.2 6.4 0.05 0.51 0.15 91 1012.9
20260508080609 14 225 8.0 9.7 0.05 0.48 0.13 91 1012.8
20260508075634 14 135 3.2 6.4 0.05 0.48 0.13 91 1013.1
20260508074610 15 180 3.2 3.2 0.05 0.46 0.10 91 1013.2
20260508073553 14 113 3.2 3.2 0.05 0.46 0.10 90 1013.3
20260508072610 14 225 3.2 6.4 0.10 0.46 0.10 90 1013.1
20260508070609 14 158 3.2 3.2 0.05 0.43 0.05 88 1013.0
20260508065553 14 113 3.2 6.4 0.03 0.38 0.03 87 1012.9
20260508064610 14 113 6.4 8.0 0.03 0.38 0.03 85 1012.6
20260508063553 14 113 6.4 9.7 0.00 0.36 0.00 84 1012.0
20260508062610 14 135 4.8 9.7 0.00 0.36 0.00 84 1011.7
20260508061634 14 113 6.4 9.7 0.00 0.36 0.00 84 1011.5
20260508055553 14 180 8.0 11.3 0.00 0.36 0.00 84 1011.1
20260508054611 14 180 8.0 12.9 0.00 0.36 0.00 83 1011.0
20260508053553 14 180 8.0 9.7 0.00 0.36 0.00 83 1011.1
20260508052611 14 180 8.0 12.9 0.00 0.36 0.00 84 1011.0
20260508051552 13 158 3.2 6.4 0.00 0.36 0.00 85 1011.2
20260508045554 13 158 3.2 6.4 0.00 0.36 0.00 84 1010.9
20260508044609 14 158 4.8 8.0 0.00 0.36 0.00 84 1011.1
20260508043553 14 180 6.4 8.0 0.00 0.36 0.00 84 1010.9
20260508042609 14 270 8.0 12.9 0.00 0.36 0.00 84 1011.0
20260508041554 14 135 6.4 8.0 0.00 0.36 0.00 84 1010.9
20260508040610 14 225 8.0 11.3 0.00 0.36 0.00 84 1011.1
20260508035553 14 90 8.0 11.3 0.00 0.36 0.00 84 1011.1
20260508034610 14 158 8.0 9.7 0.00 0.36 0.00 84 1011.1
20260508033554 14 158 8.0 11.3 0.00 0.36 0.00 84 1011.1
20260508032610 14 270 4.8 12.9 0.00 0.36 0.00 83 1011.2
20260508031553 14 203 6.4 9.7 0.00 0.36 0.00 83 1011.3
20260508024610 15 203 3.2 8.0 0.00 0.36 0.00 81 1011.2
20260508021553 14 248 3.2 3.2 0.00 0.36 0.00 83 1011.4
20260508020609 14 225 3.2 3.2 0.00 0.36 0.00 83 1011.7
20260508015552 14 158 3.2 6.4 0.00 0.36 0.00 83 1011.8
20260508014609 14 135 3.2 3.2 0.00 0.36 0.00 83 1011.5
20260508013552 14 135 6.4 9.7 0.00 0.36 0.00 83 1011.4
20260508012609 14 180 8.0 11.3 0.00 0.36 0.00 83 1011.7
20260508011552 14 158 8.0 9.7 0.00 0.36 0.00 84 1011.7
20260508005554 15 158 3.2 6.4 0.00 0.36 0.00 84 1012.0
20260508004609 15 135 3.2 3.2 0.00 0.36 0.00 83 1012.0
20260508003553 15 225 6.4 9.7 0.00 0.36 0.00 83 1011.9
20260508002609 15 180 3.2 8.0 0.00 0.36 0.00 83 1012.0
20260508000608 15 180 3.2 8.0 0.00 0.36 0.00 82 1012.2
20260507234610 15 203 3.2 6.4 0.36 0.36 0.36 82 1012.3
20260507232612 15 135 3.2 3.2 0.36 0.36 0.36 82 1012.4
20260507231554 15 135 3.2 3.2 0.36 0.36 0.36 82 1012.5
20260507230609 15 158 3.2 3.2 0.36 0.36 0.36 83 1012.7
20260507225553 16 158 1.6 3.2 0.00 0.00 0.00 82 1012.7
20260507224611 15 135 3.2 6.4 0.00 0.36 0.36 82 1012.7
20260507223553 15 113 4.8 8.0 0.00 0.36 0.36 82 1012.6
20260507222611 15 135 3.2 6.4 0.00 0.36 0.36 82 1012.5
20260507220611 15 113 4.8 6.4 0.00 0.36 0.36 81 1012.4
20260507215552 16 113 3.2 6.4 0.00 0.00 0.00 81 1012.3
20260507214611 16 203 3.2 3.2 0.00 0.36 0.36 80 1012.2
20260507213553 16 135 3.2 6.4 0.00 0.36 0.36 79 1012.5
20260507212616 16 135 1.6 3.2 0.00 0.36 0.36 79 1012.5
20260507211553 16 180 3.2 3.2 0.00 0.36 0.36 78 1012.3
20260507210610 16 135 0.0 3.2 0.00 0.36 0.36 77 1012.4
20260507205555 17 135 0.0 0.0 0.00 0.36 0.36 76 1012.3
20260507204609 16 158 1.6 3.2 0.00 0.36 0.36 77 1012.2
20260507203554 16 135 3.2 3.2 0.00 0.36 0.36 78 1012.1
20260507202609 16 158 1.6 3.2 0.00 0.36 0.36 78 1011.8
20260507201554 17 248 1.6 3.2 0.00 0.36 0.36 76 1011.7
20260507200609 17 248 1.6 3.2 0.00 0.36 0.36 74 1011.6
20260507195554 17 158 0.0 3.2 0.00 0.36 0.36 74 1011.3
20260507194609 17 315 1.6 3.2 0.00 0.36 0.36 73 1011.1
20260507193554 17 248 3.2 3.2 0.00 0.36 0.36 74 1011.0
20260507192609 18 203 1.6 3.2 0.00 0.36 0.36 73 1010.9
20260507191554 18 270 3.2 8.0 0.00 0.36 0.36 73 1010.8
20260507185553 18 338 3.2 6.4 0.00 0.36 0.36 72 1010.5
20260507184609 18 293 3.2 8.0 0.00 0.36 0.36 71 1010.4
20260507183554 18 293 3.2 6.4 0.00 0.36 0.36 69 1010.2
20260507182609 18 315 3.2 9.7 0.00 0.36 0.36 68 1010.1
20260507181553 18 338 4.8 9.7 0.00 0.36 0.36 67 1010.0
20260507180609 18 315 6.4 8.0 0.00 0.36 0.36 69 1009.9
20260507175555 18 293 8.0 11.3 0.00 0.36 0.36 65 1009.7
20260507174610 18 270 4.8 9.7 0.00 0.36 0.36 67 1009.6
20260507173554 19 180 4.8 8.0 0.00 0.36 0.36 66 1009.6
20260507171553 20 203 6.4 11.3 0.00 0.36 0.36 66 1009.7
20260507170609 20 248 6.4 11.3 0.00 0.36 0.36 66 1009.6
20260507165552 20 293 8.0 12.9 0.00 0.36 0.36 65 1009.4
20260507164610 20 248 8.0 12.9 0.00 0.36 0.36 66 1009.3
20260507163555 20 158 4.8 9.7 0.00 0.36 0.36 68 1009.3
20260507162609 20 225 6.4 11.3 0.00 0.36 0.36 69 1009.2
20260507161555 20 225 4.8 8.0 0.00 0.36 0.36 70 1009.2
20260507155554 18 203 8.0 12.9 0.20 0.36 0.36 79 1009.3
20260507153554 17 135 8.0 14.5 0.30 0.36 0.36 86 1009.4
20260507152609 16 135 9.7 17.7 0.33 0.36 0.36 88 1009.5
20260507150609 16 135 8.0 12.9 0.15 0.15 0.15 87 1010.1
20260507145552 17 0 12.9 22.5 0.10 0.10 0.10 83 1010.1
20260507143553 20 270 0.0 3.2 0.03 0.03 0.03 73 1010.0
20260507142610 19 293 3.2 6.4 0.00 0.00 0.00 70 1010.1
20260507140610 18 293 3.2 6.4 0.00 0.00 0.00 71 1010.0
20260507134610 19 293 3.2 6.4 0.00 0.00 0.00 71 1009.7
20260507133552 19 0 3.2 8.0 0.00 0.00 0.00 70 1009.8
20260507132610 20 135 4.8 9.7 0.00 0.00 0.00 70 1009.8
20260507131553 19 158 11.3 14.5 0.00 0.00 0.00 70 1009.7
20260507130611 19 68 4.8 9.7 0.00 0.00 0.00 68 1009.7